[Date Prev][Date Next][Thread Prev][Thread Next] - [Date Index][Thread Index][Author Index]
2 Line ISS Keps 7-6
- Subject: [sarex] 2 Line ISS Keps 7-6
- From: "Dave Larsen PhD" <doc@xxxxxxxxxxx>
- Date: Tue, 5 Jul 2005 20:20:16 -0700
ISS
1 25544U 98067A 05186.98247940 .00011407 00000-0 87978-4 0 8460
2 25544 051.6432 164.5676 0001508 310.3243 107.2054 15.72504749378649
----
Via the sarex mailing list at AMSAT.ORG courtesy of AMSAT-NA.
To unsubscribe, send "unsubscribe sarex" to Majordomo@amsat.org
AMSAT Home